Flag for South Africa Weather past 2 weeks in East London, South Africa

Now
55 °F

Clear.


Feels Like: 53 °F
Forecast: 56 / 84 °F
Wind: 9 mph from Northwest

Location: East London

Current Time: Jul 30, 2014 at 5:59:49 AM

Latest Report: Jul 30, 2014 at 5:00 AM


Visibility: 10 mi

Pressure: 30.27 "Hg

Humidity: 59%

Dew point: 41 °F

Location of East LondonLocation

Historic Weather in East London — Graph

°F

East London temperature yesterday

Maximum temperature yesterday: 72 °F (at 4:00 PM)
Minimum temperature yesterday: 50 °F (at 5:00 AM)
Average temperature yesterday: 61 °F

Past Weeks' High & Low Weather Summary

 TemperatureHumidityPressure
High88 °F (Jul 16, 1:00 PM)88% (Jul 23, 8:00 PM)30.60 "Hg (Jul 23, 8:00 PM)
Low48 °F (Jul 15, 7:00 AM)11% (Jul 16, 1:00 PM)29.59 "Hg (Jul 17, 3:00 PM)
Average63 °F52%30.13 "Hg
* Reported Jul 15 5:00 AM — Jul 30 5:00 AM, East London, Weather by CustomWeather, © 2014

Note: Actual official high and low records may vary slightly from our data, if they occured in-between our weather recording intervals... More about our weather records

Advertising

East London weather history for previous 24 hours

 ConditionsComfort  
Time TempWeatherWind HumidityBarometerVisibility
5:00 AM
Jul 30
55 °FClear.9 mph59%30.27 "Hg10 mi
9:00 PM
Jul 29
54 °FClear.6 mph72%30.30 "Hg10 mi
8:00 PM57 °FPassing clouds.3 mph63%30.30 "HgN/A
7:00 PM57 °FClear.2 mph72%30.30 "Hg10 mi
6:00 PM63 °FPassing clouds.6 mph59%30.27 "HgN/A
5:00 PM66 °FClear.6 mph60%30.27 "Hg10 mi
4:00 PM72 °FSunny.6 mph44%30.30 "Hg10 mi
3:00 PM70 °FSunny.7 mph46%30.30 "Hg10 mi
2:00 PM70 °FSunny.7 mph43%30.30 "Hg10 mi
1:00 PM68 °FPassing clouds.7 mph46%30.33 "HgN/A
12:00 PM70 °FSunny.1 mph38%30.39 "Hg10 mi
11:00 AM66 °FPassing clouds.5 mph46%30.42 "HgN/A
10:00 AM61 °FPassing clouds.5 mph55%30.42 "HgN/A
9:00 AM57 °FPassing clouds.10 mph63%30.42 "HgN/A
8:00 AM55 °FSunny.12 mph67%30.42 "Hg10 mi
7:00 AM54 °FSunny.15 mph72%30.45 "Hg10 mi
6:00 AM52 °FClear.10 mph77%30.45 "Hg10 mi
5:00 AM50 °FPassing clouds.7 mph82%30.48 "HgN/A
Weather by CustomWeather, © 2014

See weather overviewHow to use our weather pages